This is the latest recevied weather packets stored in our database for station/object KK7RJD. If no packets are shown the sender has not sent any weather packets the latest 10 day(s).
| Time | Temp. | Humidity | Pressure | Rain* | Wind** | Luminosity | Snow |
|---|---|---|---|---|---|---|---|
| 1777842846 | 22.78° C | 25% | 1011.5 hPa | 0 mm | - | 825 W/m² | - |
| 1777841939 | 22.22° C | 26% | 1011.7 hPa | 0 mm | - | 864 W/m² | - |
| 1777840727 | 21.11° C | 27% | 1011.9 hPa | 0 mm | - | 873 W/m² | - |
| 1777840121 | 21.67° C | 25% | 1011.9 hPa | 0 mm | - | 863 W/m² | - |
| 1777839819 | 21.67° C | 25% | 1011.9 hPa | 0 mm | - | 882 W/m² | - |
| 1777839214 | 21.67° C | 27% | 1012.3 hPa | 0 mm | - | 919 W/m² | - |
| 1777838912 | 21.67° C | 26% | 1012.1 hPa | 0 mm | - | 916 W/m² | - |
| 1777837090 | 21.11° C | 29% | 1012.8 hPa | 0 mm | - | 955 W/m² | - |
| 1777836483 | 20.56° C | 28% | 1012.9 hPa | 0 mm | - | 962 W/m² | - |
| 1777835875 | 21.11° C | 29% | 1013.2 hPa | 0 mm | - | 1046 W/m² | - |
| 1777835572 | 21.11° C | 29% | 1013.2 hPa | 0 mm | - | 995 W/m² | - |
| 1777834663 | 21.11° C | 33% | 1013 hPa | 0 mm | - | 927 W/m² | - |
| 1777833750 | 20.56° C | 28% | 1013.6 hPa | 0 mm | - | 911 W/m² | - |
| 1777833446 | 20.56° C | 30% | 1013.5 hPa | 0 mm | - | 908 W/m² | - |
| 1777833143 | 20° C | 30% | 1013.7 hPa | 0 mm | - | 907 W/m² | - |
| 1777832841 | 20° C | 31% | 1013.6 hPa | 0 mm | - | 904 W/m² | - |
| 1777832540 | 19.44° C | 32% | 1013.8 hPa | 0 mm | - | 900 W/m² | - |
| 1777831933 | 19.44° C | 33% | 1013.8 hPa | 0 mm | - | 892 W/m² | - |
| 1777831629 | 19.44° C | 32% | 1014.1 hPa | 0 mm | - | 886 W/m² | - |
| 1777829811 | 19.44° C | 31% | 1014.4 hPa | 0 mm | - | 849 W/m² | - |
| 1777829507 | 18.89° C | 34% | 1014.6 hPa | 0 mm | - | 840 W/m² | - |
| 1777829204 | 19.44° C | 34% | 1014.6 hPa | 0 mm | - | 832 W/m² | - |
| 1777828295 | 18.33° C | 34% | 1014.9 hPa | 0 mm | - | 804 W/m² | - |
| 1777827992 | 17.78° C | 36% | 1014.8 hPa | 0 mm | - | 795 W/m² | - |
| 1777827386 | 17.78° C | 37% | 1014.9 hPa | 0 mm | - | 774 W/m² | - |
* Rain latest hour (hover to see other rain measurements)
** Current wind speed in m/s (hover to see current wind gust speed)